Location: Coupvray
(48.8929°N, 2.7967°E)
Time: 10:25:29
(UTC+00:00)

Altair 2 - Visible Passes

Search period start: 17 January 2021 00:00
Search period end: 27 January 2021 00:00
Orbit: 834 x 952 km, 90.2° (Epoch: 17 January)

Date Brightness Start Highest point End Pass type
(mag) Time Alt. Az. Time Alt. Az. Time Alt. Az.
17 Jan 8.5 06:02:44 10° N 06:08:14 55° E 06:13:51 10° SSE visible
17 Jan 8.1 17:40:36 10° SE 17:45:39 38° ENE 17:50:41 10° NNE visible
17 Jan 9.3 19:23:26 10° SSW 19:28:23 33° W 19:33:19 10° NNW visible
18 Jan 8.4 06:03:27 10° N 06:09:00 60° E 06:14:41 10° S visible
18 Jan 8.0 17:41:13 10° SSE 17:46:20 42° E 17:51:28 10° N visible
18 Jan 9.4 19:24:19 10° SW 19:29:09 31° W 19:33:59 10° NNW visible
19 Jan 10.9 04:24:52 10° ENE 04:25:57 10° ENE 04:27:02 10° E visible
19 Jan 8.2 06:04:09 10° N 06:09:45 66° E 06:15:28 10° S visible
19 Jan 7.9 17:41:51 10° SSE 17:47:02 45° E 17:52:15 10° N visible
19 Jan 9.6 19:25:14 10° SW 19:29:55 28° W 19:34:38 10° NNW visible
20 Jan 10.8 04:24:51 10° NE 04:26:46 12° ENE 04:28:43 10° E visible
20 Jan 8.1 06:04:51 10° N 06:10:30 71° E 06:16:16 10° S visible
20 Jan 7.8 17:42:29 10° SSE 17:47:45 49° E 17:53:01 10° N visible
20 Jan 9.7 19:26:09 10° SW 19:30:42 26° W 19:35:16 10° NNW visible
21 Jan 10.7 04:25:07 10° NE 04:27:36 13° ENE 04:30:06 10° E visible
21 Jan 8.0 06:05:34 10° N 06:11:14 77° E 06:17:02 10° S visible
21 Jan 7.8 17:43:08 10° SSE 17:48:27 54° E 17:53:47 10° N visible
21 Jan 9.8 19:27:05 10° SW 19:31:29 24° WNW 19:35:54 10° NNW visible
22 Jan 10.7 04:25:30 10° NE 04:28:25 14° ENE 04:31:22 10° ESE visible
22 Jan 7.9 06:06:17 10° N 06:11:59 83° E 06:17:49 10° S visible
22 Jan 7.7 17:43:48 10° SSE 17:49:09 58° E 17:54:33 10° N visible
22 Jan 10.0 19:28:03 10° SW 19:32:16 22° WNW 19:36:32 10° NNW visible
23 Jan 10.6 04:25:58 10° NE 04:29:14 15° ENE 04:32:33 10° ESE visible
23 Jan 7.8 06:07:00 10° N 06:12:43 89° E 06:18:34 10° S visible
23 Jan 7.6 17:44:28 10° SSE 17:49:52 63° E 17:55:18 10° N visible
23 Jan 10.1 19:29:01 10° SW 19:33:03 21° WNW 19:37:08 10° NNW visible
24 Jan 10.5 04:26:27 10° NE 04:30:03 17° ENE 04:33:41 10° ESE visible
24 Jan 7.8 06:07:44 10° N 06:13:27 85° W 06:19:19 10° S visible
24 Jan 7.6 17:45:09 10° SSE 17:50:35 69° E 17:56:04 10° N visible
24 Jan 10.2 19:30:02 10° WSW 19:33:51 19° WNW 19:37:43 10° NNW visible
25 Jan 10.4 04:27:00 10° NNE 04:30:52 18° ENE 04:34:47 10° ESE visible
25 Jan 7.8 06:08:29 10° N 06:14:11 79° W 06:20:03 10° S visible
25 Jan 7.6 17:45:51 10° S 17:51:18 75° E 17:56:49 10° N visible
25 Jan 10.4 19:31:03 10° WSW 19:34:38 18° WNW 19:38:17 10° NNW visible
26 Jan 10.3 04:27:33 10° NNE 04:31:41 20° ENE 04:35:51 10° ESE visible
26 Jan 7.8 06:09:13 10° N 06:14:55 73° W 06:20:47 10° SSW visible
26 Jan 7.6 17:46:33 10° S 17:52:01 81° E 17:57:33 10° N visible
26 Jan 10.5 19:32:06 10° WSW 19:35:27 16° WNW 19:38:49 10° NW visible
